Regional Weather Roundup
Issued by NWS Northern Indiana

Home | Current Version | Previous Version | Graphics & Text | Print | Product List | Glossary On
Versions: 1 2 3 4 5 6 7 8 9 10 11 12 13 14 15 16 17 18 19 20 21 22 23 24 25 26 27 28 29 30 31 32 33 34 35 36 37 38 39 40 41 42 43 44 45 46 47 48 49 50
000
ASUS43 KIWX 221800
RWRIWX

KIWX WEATHER ROUNDUP
NATIONAL WEATHER SERVICE NORTHERN INDIANA
200 PM EDT WED MAR 22 2017

NOTE: "FAIR" INDICATES FEW OR NO CLOUDS BELOW 12,000 FEET WITH NO
SIGNIFICANT WEATHER AND/OR OBSTRUCTIONS TO VISIBILITY.

* THESE STATIONS ARE NOT UNDER NWS QUALITY CONTROL. THEY ALSO MAY NOT
  REPORT WEATHER SUCH AS PRECIPITATION OR FOG.

INZ001>027-221900-
NORTHERN INDIANA

CITY           SKY/WX    TMP DP  RH WIND       PRES   REMARKS
GARY*          MOSUNNY   32  14  47 NE14      30.60F WCI  22
MICHIGAN CITY* SUNNY     34  16  47 N5        30.57F WCI  30
KNOX*          SUNNY     34 -11  14 SE5       30.56F WCI  30
SOUTH BEND     SUNNY     32  11  41 VRB3      30.57F
6HR MIN TEMP:  19; 6HR MAX TEMP:  33;

ELKHART*       SUNNY     32   9  37 SE6       30.57S WCI  26
GOSHEN         SUNNY     33  11  39 E8        30.56F WCI  26
6HR MIN TEMP:  20; 6HR MAX TEMP:  33;

MONTICELLO*    SUNNY     33  15  47 SE3       30.55F
6HR MIN TEMP:  24; 6HR MAX TEMP:  34;

ANGOLA*        SUNNY     30  14  51 SE6       30.55S WCI  24
FORT WAYNE     SUNNY     33  14  45 E10       30.56F WCI  25
6HR MIN TEMP:  22; 6HR MAX TEMP:  33;

PERU/GRISSOM   SUNNY     33  15  49 E7        30.54S WCI  26
6HR MIN TEMP:  23; 6HR MAX TEMP:  33; 6HR PCP: TRACE;


$$
INZ028>050-221900-
CENTRAL INDIANA

CITY           SKY/WX    TMP DP  RH WIND       PRES   REMARKS
LAFAYETTE      SUNNY     34  18  52 E9        30.55F WCI  27
6HR MIN TEMP:  24; 6HR MAX TEMP:  34;

KOKOMO*        SUNNY     32  20  61 NE10      30.56F WCI  24
6HR MIN TEMP:  24; 6HR MAX TEMP:  32;

MUNCIE*        SUNNY     34  18  52 E10       30.53F WCI  26
6HR MIN TEMP:  25; 6HR MAX TEMP:  34;

INDIANAPOLIS   MOSUNNY   37  13  37 E13G24    30.51F
6HR MIN TEMP:  27; 6HR MAX TEMP:  37;


$$
MIZ043>046-050>051-056>058-064>065-071>073-077>080-221900-
SOUTHWEST LOWER MICHIGAN

CITY           SKY/WX    TMP DP  RH WIND       PRES   REMARKS
BATTLE CREEK   SUNNY     33  10  38 E7        30.56S WCI  27
6HR MIN TEMP:  18; 6HR MAX TEMP:  33;

BENTON HARBOR  SUNNY     33  13  43 VRB6      30.58F WCI  28
6HR MIN TEMP:  21; 6HR MAX TEMP:  34;

COLDWATER*     SUNNY     32   9  37 E5        30.56S WCI  27
6HR MIN TEMP:  20; 6HR MAX TEMP:  32;

HILLSDALE*     SUNNY     32  10  40 NW8       30.53S WCI  25
HOLLAND        SUNNY     32  11  41 VRB6      30.59F WCI  26
6HR MIN TEMP:  21; 6HR MAX TEMP:  33;

GRAND RAPIDS   MOSUNNY   32  10  40 VRB3      30.57F
6HR MIN TEMP:  19; 6HR MAX TEMP:  32;

KALAMAZOO      SUNNY     33   7  33 SE6       30.57F WCI  28
6HR MIN TEMP:  17; 6HR MAX TEMP:  33;

STURGIS*       SUNNY     32  12  42 E9        30.55F WCI  24
6HR MIN TEMP:  20; 6HR MAX TEMP:  32;

THREE RIVERS*  FAIR      32  12  43 NE6       30.57F WCI  26
6HR MIN TEMP:  20; 6HR MAX TEMP:  32;


$$
OHZ001>008-015>018-024>025-221900-
NORTHWEST OHIO

CITY           SKY/WX    TMP DP  RH WIND       PRES   REMARKS
DEFIANCE       SUNNY     32  14  47 NE9       30.57F WCI  24
6HR MIN TEMP:  20; 6HR MAX TEMP:  32;

FINDLAY        MOSUNNY   34  13  41 NE10      30.54F WCI  26
6HR MIN TEMP:  22; 6HR MAX TEMP:  35;

TOLEDO EXPRESS SUNNY     32   9  38 VRB5      30.56S WCI  27
6HR MIN TEMP:  20; 6HR MAX TEMP:  34;

TOLEDO METCALF SUNNY     32  14  47 NE8G16    30.58F WCI  25
6HR MIN TEMP:  22; 6HR MAX TEMP:  32;

LIMA           MOSUNNY   31  16  54 NE9       30.53F WCI  23
6HR MIN TEMP:  21; 6HR MAX TEMP:  33;


$$
AND FOR LAKE MICHIGAN COASTAL AND OPEN LAKE BUOY OBSERVATIONS

STATION/POSITION TEMP    WIND        PRES    VSBY  WAVE
                 AIR SEA DIR/SP/G                  HT/PER
                 (F)     (DEG/KT/KT) (MB)    (MI)  (FT/S)
CALUMET HARBOR    28      60/  9/ 15 1035.2F
MICHIGAN CITY     26      10/ 11/ 13   N/A
BURNS HARBOR      27      30/  9/ 11 1035.9F
SAINT JOSEPH      29      10/  8/ 11 1036.6

$$
&&



USA.gov is the U.S. government's official web portal to all federal, state and local government web resources and services.